Location: Unspecified
(49.2170°N, 0.0000°E)
Time: 09:20:56
(UTC+00:00)

SR - All Passes

Search period start: 24 January 2021 00:00
Search period end: 03 February 2021 00:00
Orbit: 575 x 880 km, 66.7° (Epoch: 23 January)

Date Brightness Start Highest point End Pass type
(mag) Time Alt. Az. Time Alt. Az. Time Alt. Az.
24 Jan - 03:45:44 10° SSE 03:49:34 24° ESE 03:53:42 10° ENE visible
24 Jan - 05:26:23 10° SW 05:31:12 60° NW 05:36:31 10° NNE visible
24 Jan - 07:10:49 10° WNW 07:14:28 19° NNW 07:18:19 10° NNE daylight
24 Jan - 08:56:28 10° NNW 08:58:49 13° N 09:01:13 10° NNE daylight
24 Jan - 10:39:04 10° NNW 10:43:09 20° NNE 10:47:21 10° ENE daylight
24 Jan - 12:20:46 10° NNW 12:26:26 57° NE 12:32:16 10° SE daylight
24 Jan - 14:03:13 10° NW 14:08:21 33° WSW 14:13:34 10° S daylight
25 Jan - 02:58:17 10° SE 03:00:20 13° ESE 03:02:28 10° ENE visible
25 Jan - 04:36:34 10° SSW 04:41:23 79° ESE 04:46:43 10° NE visible
25 Jan - 06:19:54 10° W 06:24:07 26° NNW 06:28:40 10° NNE visible
25 Jan - 08:05:39 10° NW 08:08:12 13° N 08:10:49 10° NNE daylight
25 Jan - 09:49:21 10° NNW 09:52:41 16° NNE 09:56:06 10° NE daylight
25 Jan - 11:31:06 10° NNW 11:36:24 37° NE 11:41:51 10° ESE daylight
25 Jan - 13:13:08 10° NW 13:18:48 57° WSW 13:24:34 10° SSE daylight
25 Jan - 14:58:51 10° W 14:59:48 10° W 15:00:45 10° WSW daylight
26 Jan - 03:47:14 10° S 03:51:46 43° ESE 03:56:44 10° NE visible
26 Jan - 05:29:17 10° WSW 05:33:56 38° NW 05:39:00 10° NNE visible
26 Jan - 07:14:31 10° NW 07:17:38 15° NNW 07:20:52 10° NNE daylight
26 Jan - 08:59:26 10° NNW 09:02:07 13° N 09:04:51 10° NE daylight
26 Jan - 10:41:28 10° NNW 10:46:12 26° NNE 10:51:05 10° E daylight
26 Jan - 12:23:16 10° NW 12:29:04 87° NE 12:35:02 10° SE daylight
26 Jan - 14:06:27 10° WNW 14:10:34 20° WSW 14:14:42 10° SSW daylight
27 Jan - 02:58:35 10° SSE 03:02:22 23° ESE 03:06:24 10° ENE visible
27 Jan - 04:39:04 10° SW 04:43:56 63° NW 04:49:18 10° NNE visible
27 Jan - 06:23:25 10° WNW 06:27:10 20° NNW 06:31:07 10° NNE visible
27 Jan - 08:09:05 10° NNW 08:11:29 13° N 08:13:56 10° NNE daylight
27 Jan - 09:51:49 10° NNW 09:55:51 19° NNE 10:00:00 10° ENE daylight
27 Jan - 11:33:31 10° NNW 11:39:12 55° NE 11:45:00 10° SE daylight
27 Jan - 13:15:56 10° NW 13:21:09 35° WSW 13:26:26 10° S daylight
28 Jan - 02:11:23 10° ESE 02:13:09 12° ESE 02:14:57 10° E visible
28 Jan - 03:49:18 10° SSW 03:54:08 75° ESE 03:59:30 10° NE visible
28 Jan - 05:32:31 10° W 05:36:50 27° NW 05:41:28 10° NNE visible
28 Jan - 07:18:13 10° NW 07:20:52 13° N 07:23:35 10° NNE daylight
28 Jan - 09:02:05 10° NNW 09:05:22 15° NNE 09:08:44 10° NE daylight
28 Jan - 10:43:52 10° NNW 10:49:08 36° NE 10:54:34 10° ESE daylight
28 Jan - 12:25:51 10° NW 12:31:35 60° WSW 12:37:24 10° SSE daylight
28 Jan - 14:10:57 10° W 14:12:37 11° W 14:14:17 10° WSW daylight
29 Jan - 03:00:01 10° S 03:04:32 40° ESE 03:09:29 10° NE visible
29 Jan - 04:41:57 10° WSW 04:46:39 40° NW 04:51:48 10° NNE visible
29 Jan - 06:27:06 10° NW 06:30:18 16° NNW 06:33:39 10° NNE visible
29 Jan - 08:12:07 10° NNW 08:14:47 13° N 08:17:31 10° NE daylight
29 Jan - 09:54:13 10° NNW 09:58:55 25° NNE 10:03:45 10° E daylight
29 Jan - 11:36:00 10° NW 11:41:51 83° NE 11:47:48 10° SE daylight
29 Jan - 13:19:06 10° WNW 13:23:22 21° WSW 13:27:40 10° SSW daylight
30 Jan - 02:11:28 10° SSE 02:15:09 22° ESE 02:19:06 10° ENE visible
30 Jan - 03:51:46 10° SW 03:56:40 67° NW 04:02:05 10° NNE visible
30 Jan - 05:36:00 10° WNW 05:39:51 20° NNW 05:43:55 10° NNE visible
30 Jan - 07:21:43 10° NNW 07:24:09 13° N 07:26:40 10° NNE daylight
30 Jan - 09:04:34 10° NNW 09:08:33 19° NNE 09:12:39 10° ENE daylight
30 Jan - 10:46:17 10° NNW 10:51:56 52° NE 10:57:44 10° ESE daylight
30 Jan - 12:28:39 10° NW 12:33:57 37° WSW 12:39:18 10° S daylight
31 Jan - 01:24:33 10° ESE 01:25:57 11° E 01:27:23 10° E night (unlit)
31 Jan - 03:02:02 10° SSW 03:06:53 71° ESE 03:12:15 10° NE visible
31 Jan - 04:45:08 10° W 04:49:32 28° NW 04:54:16 10° NNE visible
31 Jan - 06:30:48 10° NW 06:33:32 14° N 06:36:22 10° NNE visible
31 Jan - 08:14:48 10° NNW 08:18:03 15° NNE 08:21:23 10° NE daylight
31 Jan - 09:56:37 10° NNW 10:01:52 35° NE 10:07:15 10° ESE daylight
31 Jan - 11:38:36 10° NW 11:44:21 63° WSW 11:50:12 10° SSE daylight
31 Jan - 13:23:17 10° W 13:25:26 12° WSW 13:27:35 10° WSW daylight
01 Feb - 02:12:49 10° S 02:17:19 38° ESE 02:22:13 10° NE visible
01 Feb - 03:54:36 10° WSW 03:59:23 42° NW 04:04:36 10° NNE visible
01 Feb - 05:39:40 10° WNW 05:42:59 16° NNW 05:46:27 10° NNE visible
01 Feb - 07:24:47 10° NNW 07:27:28 13° N 07:30:12 10° NE daylight
01 Feb - 09:06:59 10° NNW 09:11:37 25° NNE 09:16:24 10° E daylight
01 Feb - 10:48:46 10° NW 10:54:36 80° NE 11:00:33 10° SE daylight
01 Feb - 12:31:46 10° WNW 12:36:11 22° WSW 12:40:38 10° SSW daylight
02 Feb - 01:24:21 10° SSE 01:27:57 21° ESE 01:31:47 10° ENE visible
02 Feb - 03:04:28 10° SW 03:09:24 71° NW 03:14:52 10° NNE visible
02 Feb - 04:48:36 10° WNW 04:52:32 21° NNW 04:56:43 10° NNE visible
02 Feb - 06:34:20 10° NNW 06:36:50 13° N 06:39:24 10° NNE visible
02 Feb - 08:17:18 10° NNW 08:21:15 19° NNE 08:25:17 10° ENE daylight
02 Feb - 09:59:03 10° NNW 10:04:41 50° NE 10:10:27 10° ESE daylight
02 Feb - 11:41:21 10° NW 11:46:45 39° WSW 11:52:10 10° S daylight
